Vorticity
3 2 3 4 3 4 3 4 5 7 9 8 6 7 7 6 5 5 6 6 7 7 7 6 6 6 6 6 5 6 6 6 6 8 7 7 8 7
4 3 3 3 3 4 2 4 6 6 7 8 8 7 7 7 7 7 7 7 7 7 7 7 6 6 6 6 5 5 5 6 6 7 7 8 8 8
6 5 4 3 4 2 3 4 7 9 9 8 8 7 7 8 8 8 7 7 7 7 7 7 8 7 7 6 5 6 5 6 7 6 7 8 8 8
6 6 5 6 3 5 3 6 8 10 10 9 8 8 8 8 7 7 8 8 7 8 8 8 7 8 7 7 7 6 5 6 6 6 6 7 8 7
5 5 5 4 5 2 4 5 8 -7 4 12 11 8 7 7 7 7 7 7 8 8 8 7 7 7 7 6 7 7 6 6 6 6 8 8 8 7
5 5 -0 1 5 -3 3 4 1 13 4 5 14 10 8 7 6 7 8 9 9 10 10 7 7 7 8 8 7 7 7 5 6 6 7 8 7 7
-5 5 0 7 1 -2 6 3 4 2 1 0 6 8 10 9 8 10 9 9 8 8 7 8 9 9 8 6 7 7 5 5 7 6 7 7 7 6
-2 29 15 29 17 -3 5 1 13 6 -5 3 -1 7 9 8 8 9 8 7 8 11 10 9 10 10 10 9 9 8 11 -2 10 7 8 7 7 6
-2 34 23 10 -10 22 5 20 19 12 2 6 6 8 3 6 2 7 5 4 6 10 8 5 7 8 7 7 7 10 -7 14 8 9 8 7 6 6
11 13 10 14 13 18 3 9 9 9 12 18 11 -6 5 3 9 7 4 4 4 5 6 2 7 8 8 7 11 -12 17 6 8 8 8 7 6 6
18 -3 41 14 31 42 31 19 -5 17 -6 22 13 11 18 9 26 6 5 21 4 3 10 8 14 12 9 13 -0 10 10 8 10 8 8 8 7 6
13 22 -25 -4 26 -14 2 21 0 21 47 29 32 24 17 13 3 14 26 13 13 12 11 5 17 11 16 9 7 12 10 8 5 9 9 7 6 6
17 16 2 8 1 19 -11 12 18 5 -10 6 13 6 12 14 16 13 12 24 29 23 20 12 -1 13 7 5 -0 8 6 9 10 11 9 9 8 6
17 -10 17 19 6 10 9 24 20 24 11 14 13 18 15 14 22 17 15 11 11 16 25 27 29 25 17 6 -18 -6 10 11 10 9 9 3 5 6
7 11 11 16 2 0 16 5 6 11 12 18 20 15 21 14 6 3 5 5 7 7 8 10 15 9 10 10 15 35 28 5 1 0 9 9 6 7
-2 8 15 26 25 20 2 11 6 9 15 14 14 18 15 10 12 14 12 7 11 13 7 15 16 18 22 26 23 8 -1 7 9 14 7 5 6 3
15 13 13 20 21 12 26 -4 12 5 7 18 7 1 2 12 12 7 6 7 9 13 12 8 13 15 15 25 15 16 19 11 19 12 8 6 6 -4
6 12 11 25 2 10 14 18 21 9 -17 17 10 16 16 14 9 9 10 14 14 13 13 14 12 12 12 12 17 15 13 15 14 8 5 5 3 3
19 22 22 19 13 18 -17 -1 19 9 18 7 9 11 5 5 10 14 11 8 9 11 10 12 9 9 10 13 18 8 11 16 9 9 5 2 10 12
6 8 10 12 13 18 13 16 13 13 18 17 16 16 15 15 14 14 13 13 13 13 12 10 8 15 17 13 9 7 5 -1 4 3 12 11 11 14
15 17 18 16 16 13 13 13 12 12 12 11 10 11 12 14 15 13 11 12 11 10 12 14 13 9 7 9 10 16 16 13 14 15 9 9 13 15
17 16 15 15 14 15 15 15 15 14 15 15 14 12 11 11 12 12 13 11 9 10 10 9 10 11 12 13 14 15 17 16 14 7 10 10 13 12
11 12 13 13 13 13 14 13 13 13 13 12 11 10 10 11 11 11 11 11 10 9 9 8 9 8 9 10 11 12 16 13 5 11 7 15 13 8
Height
3133 3135 3137 3139 3142 3143 3145 3146 3146 3148 3150 3150 3151 3151 3151 3151 3152 3152 3153 3154 3154 3154 3154 3154 3154 3153 3154 3153 3152 3152 3151 3151 3150 3149 3149 3148 3147 3145
3127 3129 3132 3134 3135 3137 3139 3141 3141 3141 3143 3144 3145 3146 3147 3147 3147 3147 3147 3148 3148 3149 3149 3149 3148 3149 3149 3149 3148 3148 3147 3147 3146 3145 3145 3144 3142 3141
3119 3123 3126 3128 3129 3130 3131 3133 3134 3135 3136 3138 3139 3140 3141 3142 3142 3141 3141 3142 3142 3143 3143 3144 3143 3144 3144 3143 3143 3142 3141 3141 3142 3142 3140 3140 3138 3137
3112 3115 3118 3120 3121 3123 3124 3126 3127 3128 3129 3131 3132 3133 3135 3135 3136 3136 3136 3136 3137 3137 3137 3138 3137 3138 3139 3139 3138 3137 3135 3135 3134 3134 3135 3135 3134 3132
3101 3104 3110 3111 3113 3115 3117 3117 3119 3120 3121 3122 3124 3125 3126 3127 3128 3129 3129 3129 3130 3131 3130 3130 3131 3131 3133 3132 3132 3132 3131 3130 3129 3129 3129 3129 3128 3127
3092 3095 3098 3099 3104 3106 3107 3109 3109 3110 3111 3112 3114 3116 3118 3119 3120 3121 3122 3122 3123 3123 3123 3124 3124 3125 3125 3125 3124 3124 3124 3125 3124 3124 3124 3123 3122 3122
3082 3086 3089 3090 3093 3092 3095 3099 3098 3099 3099 3102 3104 3106 3108 3110 3113 3114 3114 3114 3114 3114 3115 3115 3116 3117 3117 3117 3117 3117 3117 3117 3117 3116 3117 3117 3116 3115
3071 3071 3075 3077 3081 3083 3084 3086 3090 3090 3088 3089 3092 3095 3099 3100 3103 3104 3104 3103 3104 3108 3107 3107 3107 3108 3110 3110 3110 3110 3110 3109 3110 3110 3111 3110 3109 3108
3061 3062 3065 3068 3069 3071 3072 3073 3075 3077 3079 3081 3080 3085 3086 3088 3091 3090 3092 3093 3095 3096 3096 3096 3097 3099 3099 3100 3101 3102 3102 3102 3103 3101 3102 3102 3101 3101
3051 3050 3053 3054 3057 3058 3059 3059 3062 3063 3067 3068 3072 3073 3075 3074 3076 3077 3079 3079 3080 3083 3084 3086 3089 3091 3089 3091 3092 3093 3093 3093 3095 3095 3094 3093 3094 3094
3042 3041 3044 3043 3043 3043 3043 3044 3046 3048 3052 3055 3059 3061 3062 3063 3064 3065 3066 3068 3069 3073 3076 3076 3080 3081 3080 3081 3083 3084 3084 3085 3087 3087 3086 3085 3085 3086
3035 3033 3034 3035 3033 3035 3035 3038 3038 3038 3040 3043 3045 3048 3051 3051 3053 3054 3055 3057 3057 3059 3065 3064 3069 3070 3071 3073 3074 3075 3075 3075 3077 3077 3076 3075 3076 3076
3026 3025 3026 3026 3027 3028 3029 3031 3032 3032 3033 3035 3037 3037 3038 3041 3043 3044 3047 3048 3049 3048 3050 3050 3054 3057 3058 3062 3061 3061 3065 3065 3067 3069 3068 3068 3067 3067
3018 3017 3018 3019 3018 3021 3022 3019 3023 3022 3024 3027 3029 3031 3031 3032 3035 3036 3037 3039 3040 3039 3040 3040 3043 3045 3046 3050 3051 3052 3053 3056 3058 3059 3060 3059 3058 3058
3011 3009 3011 3012 3012 3012 3013 3012 3013 3016 3017 3016 3020 3022 3024 3027 3026 3027 3029 3030 3030 3031 3029 3031 3033 3034 3036 3037 3039 3038 3038 3040 3043 3044 3047 3049 3048 3047
3003 3003 3001 3004 3005 3004 3005 3006 3006 3007 3010 3009 3012 3013 3014 3018 3017 3019 3020 3021 3021 3022 3022 3020 3023 3021 3021 3024 3026 3026 3026 3028 3030 3032 3034 3038 3039 3038
2996 2995 2994 2994 2998 2999 3000 3000 3001 3001 3004 3006 3008 3006 3005 3009 3011 3012 3012 3011 3012 3012 3013 3011 3014 3013 3011 3014 3016 3017 3018 3020 3020 3020 3022 3024 3026 3028
2988 2988 2989 2989 2989 2992 2996 2995 2992 2995 2997 3000 3000 2999 2998 2999 3002 3004 3004 3004 3003 3004 3003 3004 3006 3005 3003 3006 3007 3010 3008 3010 3009 3009 3011 3011 3015 3017
2980 2980 2981 2982 2983 2985 2989 2987 2987 2989 2990 2990 2992 2993 2992 2991 2994 2994 2994 2995 2994 2995 2995 2997 2996 2996 2998 2998 3001 3001 2999 2999 2997 2999 3001 3001 3002 3005
2975 2974 2974 2976 2976 2977 2978 2979 2981 2982 2984 2984 2983 2985 2985 2985 2986 2986 2985 2985 2986 2987 2987 2988 2987 2990 2990 2989 2987 2992 2990 2991 2986 2986 2991 2991 2991 2992
2970 2970 2971 2972 2973 2973 2974 2975 2975 2976 2976 2977 2976 2977 2977 2977 2977 2978 2978 2976 2977 2979 2980 2980 2982 2980 2978 2979 2978 2980 2981 2980 2978 2978 2980 2981 2980 2978
2966 2966 2966 2967 2968 2968 2968 2968 2968 2969 2969 2969 2969 2969 2970 2969 2969 2969 2969 2969 2969 2970 2971 2970 2972 2970 2970 2969 2970 2970 2971 2970 2968 2968 2969 2969 2968 2967
2962 2962 2963 2963 2963 2963 2963 2963 2963 2962 2962 2962 2962 2962 2961 2961 2961 2960 2961 2961 2961 2961 2961 2962 2962 2961 2961 2959 2958 2958 2958 2957 2957 2958 2959 2959 2958 2957